FW9176 Weather Reports


time (UTC)temp
F
wind
direction
speed
knots
gust
knots
rain 1hr
in
rain 24hr
in
rain mn
in
humidity
%
barometer
mb
20260905163110 83 0 0.0 0.9 0.00 0.00 0.00 70 1013.1
20260905161600 82 51 0.0 3.5 0.00 0.00 0.00 70 1013.2
20260905160100 82 0 0.0 2.6 0.00 0.00 0.00 71 1012.9
20260905154613 82 39 0.0 2.6 0.00 0.00 0.00 70 1012.8
20260905153113 81 70 0.0 1.7 0.00 0.00 0.00 72 1012.7
20260905151614 80 58 0.0 2.6 0.00 0.00 0.00 74 1012.6
20260905150107 79 33 0.0 3.5 0.00 0.00 0.00 74 1012.5
20260905144603 79 12 0.9 3.5 0.00 0.00 0.00 76 1012.4
20260905143104 79 0 0.0 1.7 0.00 0.00 0.00 77 1012.3
20260905141557 78 20 0.0 0.9 0.00 0.00 0.00 79 1012.2
20260905140100 77 0 0.0 1.7 0.00 0.00 0.00 83 1012.1
20260905134558 76 0 0.0 1.7 0.00 0.00 0.00 85 1011.9
20260905133101 75 316 0.0 1.7 0.00 0.00 0.00 86 1012.3
20260905131607 75 0 0.0 0.9 0.00 0.00 0.00 86 1012.1
20260905124601 74 14 0.0 0.9 0.00 0.00 0.00 86 1011.8
20260905123059 75 0 0.0 0.0 0.00 0.00 0.00 86 1011.4
20260905121602 75 0 0.0 0.0 0.00 0.00 0.00 86 1011.4
20260905114602 76 0 0.0 0.0 0.00 0.00 0.00 85 1010.7
20260905113058 76 0 0.0 0.0 0.00 0.00 0.00 85 1010.5
20260905111646 77 0 0.0 0.0 0.00 0.00 0.00 85 1010.2
20260905110057 77 0 0.0 0.0 0.00 0.00 0.00 84 1010.2
20260905104607 78 0 0.0 0.0 0.00 0.00 0.00 84 1010.2
20260905103107 78 0 0.0 0.0 0.00 0.00 0.00 83 1010.1
20260905101607 78 0 0.0 0.0 0.00 0.00 0.00 83 1010.1
20260905094556 78 0 0.0 0.0 0.00 0.00 0.00 83 1010.0
20260905093106 78 0 0.0 0.0 0.00 0.00 0.00 83 1010.2
20260905091601 78 0 0.0 0.0 0.00 0.00 0.00 83 1010.2
20260905090056 78 0 0.0 0.0 0.00 0.00 0.00 83 1010.0
20260905084604 78 0 0.0 0.0 0.00 0.00 0.00 82 1010.0
20260905083102 78 0 0.0 0.0 0.00 0.00 0.00 82 1009.9
20260905081605 78 0 0.0 0.0 0.00 0.00 0.00 82 1009.9
20260905080110 78 0 0.0 0.0 0.00 0.00 0.00 81 1009.8
20260905074558 78 0 0.0 0.0 0.00 0.00 0.00 81 1009.9
20260905073104 78 0 0.0 0.0 0.00 0.00 0.00 81 1009.8
20260905071611 79 0 0.0 0.0 0.00 0.00 0.00 80 1009.9
20260905070059 79 0 0.0 0.0 0.00 0.00 0.00 80 1010.0
20260905064606 79 0 0.0 0.0 0.00 0.00 0.00 79 1010.3
20260905063100 80 0 0.0 0.0 0.00 0.00 0.00 78 1010.2
20260905061601 80 0 0.0 0.0 0.00 0.00 0.00 78 1010.4
20260905060107 80 0 0.0 0.0 0.00 0.00 0.00 77 1010.3
20260905054602 80 0 0.0 0.0 0.00 0.00 0.00 76 1010.2
20260905053108 81 0 0.0 0.0 0.00 0.00 0.00 76 1010.4
20260905051559 81 0 0.0 0.0 0.00 0.00 0.00 76 1010.4
20260905050059 81 0 0.0 0.0 0.00 0.00 0.00 75 1010.4
20260905044601 81 0 0.0 0.0 0.00 0.00 0.00 75 1010.5
20260905043102 82 0 0.0 1.7 0.00 0.00 0.00 74 1010.7
20260905041600 83 0 0.0 0.9 0.00 0.00 0.00 73 1010.7
20260905040105 84 0 0.0 0.0 0.00 0.00 0.00 75 1010.3
20260905034617 84 0 0.0 0.0 0.00 0.00 0.00 74 1010.3
20260905033118 84 0 0.0 0.0 0.00 0.00 0.00 75 1010.5
20260905031612 84 0 0.0 0.0 0.00 0.00 0.00 74 1010.9
20260905030106 85 0 0.0 0.0 0.00 0.00 0.00 74 1011.0
20260905024557 85 0 0.0 0.0 0.00 0.00 0.00 74 1011.0
20260905023125 86 0 0.0 0.0 0.00 0.00 0.00 73 1010.9
20260905021600 86 0 0.0 0.9 0.00 0.00 0.00 72 1010.8
20260905014601 86 0 0.0 0.0 0.00 0.00 0.00 71 1010.6
20260905013100 87 0 0.0 0.0 0.00 0.00 0.00 71 1010.5
20260905011602 87 0 0.0 0.0 0.00 0.00 0.00 71 1010.4
20260905010110 88 0 0.0 0.0 0.00 0.00 0.00 70 1010.1
20260905004630 88 0 0.0 0.9 0.00 0.00 0.00 69 1010.1
20260905003120 89 0 0.0 0.0 0.00 0.00 0.00 68 1009.9
20260905001603 90 0 0.0 2.6 0.00 0.00 0.00 66 1009.8
20260905000132 91 0 0.0 2.6 0.00 0.00 0.00 64 1009.6
20260904234600 92 0 0.0 0.9 0.00 0.00 0.00 62 1009.7
20260904233058 93 0 0.0 1.7 0.00 0.00 0.00 60 1009.8
20260904231602 93 0 0.0 3.5 0.00 0.00 0.00 61 1009.9
20260904230114 92 283 0.0 2.6 0.00 0.00 0.00 61 1009.9
20260904224600 92 288 0.0 4.3 0.00 0.00 0.00 61 1009.9
20260904223056 93 304 0.9 6.1 0.00 0.00 0.00 59 1010.0
20260904221557 93 0 0.0 2.6 0.00 0.00 0.00 60 1009.9
20260904220106 93 255 0.0 3.5 0.00 0.00 0.00 59 1009.9
20260904214558 93 243 0.0 2.6 0.00 0.00 0.00 60 1010.0
20260904213058 93 271 0.0 4.3 0.00 0.00 0.00 60 1009.8
20260904211603 92 160 0.9 5.2 0.00 0.00 0.00 61 1009.9
20260904210058 92 229 1.7 7.0 0.00 0.00 0.00 61 1009.7
20260904204559 92 151 0.0 1.7 0.00 0.00 0.00 60 1010.1
20260904203101 92 0 0.0 3.5 0.00 0.00 0.00 61 1010.4
20260904201614 91 0 0.0 6.1 0.00 0.00 0.00 62 1010.6
20260904200100 90 0 0.9 7.8 0.00 0.00 0.00 62 1010.9
20260904194555 90 150 0.9 6.1 0.00 0.00 0.00 63 1011.0
20260904193100 90 184 0.9 6.1 0.00 0.00 0.00 62 1011.3
20260904191556 90 159 0.0 8.7 0.00 0.00 0.00 61 1011.4
20260904190058 90 116 0.9 6.1 0.00 0.00 0.00 62 1011.7
20260904184602 89 0 0.9 7.8 0.00 0.00 0.00 61 1011.9
20260904183115 89 0 0.0 3.5 0.00 0.00 0.00 59 1011.8
20260904181556 87 74 0.9 5.2 0.00 0.00 0.00 60 1011.9
20260904180103 87 86 0.9 3.5 0.00 0.00 0.00 61 1012.7
20260904174601 86 77 0.0 2.6 0.00 0.00 0.00 64 1013.3
20260904173101 84 131 0.0 3.5 0.00 0.00 0.00 65 1013.7
20260904171614 84 65 0.9 3.5 0.00 0.00 0.00 64 1014.0
20260904170125 83 128 1.7 3.5 0.00 0.00 0.00 64 1014.1
20260904164619 82 0 0.0 3.5 0.00 0.00 0.00 67 1014.4